Home   Weather   Cham   Past weeks

Flag for Switzerland Past Weather in Cham, Zug, Switzerland — Yesterday and Last 2 Weeks

Now
59 °F

Cool.


Feels Like: 58 °F
Forecast: 56 / 66 °F
Wind: 8 mph from Southwest

Location: Zuerich-Fluntern

Current Time: Jun 28, 2017 at 10:58:00 pm

Latest Report: Jun 28, 2017 at 10:00 pm


Visibility: N/A

Pressure: 29.53 "Hg

Humidity: 91%

Dew Point: 56 °F

Location of ChamLocation

Past Weather in Cham — Graph

°F

Cham Temperature Yesterday

Maximum temperature yesterday: 81 °F (at 4:00 pm)
Minimum temperature yesterday: 61 °F (at 6:00 am)
Average temperature yesterday: 69 °F

High & Low Weather Summary for the Past Weeks

 TemperatureHumidityPressure
High90 °F (Jun 22, 4:00 pm)97% (Jun 28, 8:00 am)30.30 "Hg (Jun 28, 8:00 am)
Low55 °F (Jun 17, 4:00 am)23% (Jun 22, 2:00 pm)29.44 "Hg (Jun 28, 4:00 pm)
Average72 °F62%29.98 "Hg
* Reported Jun 13 9:00 pm — Jun 28 9:00 pm, Cham. Weather by CustomWeather, © 2017

Note: Actual official high and low records may vary slightly from our data, if they occured in-between our weather recording intervals... More about our weather records

Advertising

Cham Weather History for the Previous 24 Hours

Scroll right to see more
 ConditionsComfort  
Time TempWeatherWind HumidityBarometerVisibility
9:00 pm
Wed, Jun 28
59 °FCool.6 mph92%29.50 "HgN/A
8:00 pm60 °FCool.3 mph94%29.50 "HgN/A
7:00 pm60 °FCool.7 mph89%29.50 "HgN/A
6:00 pm64 °FMild.3 mph84%29.44 "HgN/A
5:00 pm71 °FMild.2 mph59%29.44 "HgN/A
4:00 pm72 °FMild.3 mph54%29.44 "HgN/A
3:00 pm72 °FMild.2 mph60%29.50 "HgN/A
2:00 pm73 °FPartly sunny.3 mph54%29.50 "HgN/A
1:00 pm70 °FMild.3 mph62%29.56 "HgN/A
12:00 pm67 °FMild.3 mph65%29.59 "HgN/A
11:00 am66 °FMild.5 mph78%29.60 "HgN/A
10:00 am63 °FMild.5 mph92%29.62 "HgN/A
9:00 am61 °FCool.3 mph95%29.64 "HgN/A
8:00 am60 °FOvercast.3 mph97%29.66 "HgN/A
7:00 am61 °FCool.9 mph94%29.65 "HgN/A
6:00 am61 °FCool.3 mph96%29.64 "HgN/A
5:00 am61 °FCool.12 mph95%29.65 "HgN/A
4:00 am64 °FMild.3 mph93%29.61 "HgN/A
3:00 am64 °FMild.1 mph92%29.63 "HgN/A
2:00 am68 °FMild.5 mph76%29.60 "HgN/A
1:00 am72 °FMild.2 mph64%29.57 "HgN/A
12:00 am72 °FMild.2 mph63%29.59 "HgN/A
11:00 pm
Tue, Jun 27
73 °FMild.6 mph62%29.60 "HgN/A
10:00 pm73 °FMild.3 mph59%29.62 "HgN/A
Weather by CustomWeather, © 2017

See weather overviewHow to use our weather pages